New London, NC

10:06 PM EST on February 19, 2017 (GMT -0500)
Stanly County

Weather History for KVUJ - September, 2013

Change the Weather History Date:

Tuesday, September 17, 2013

  Actual Average (KHBI) Record (KHBI)
Temperature  
Mean Temperature 67 °F -  
Max Temperature 77 °F 81 °F 95 °F (1958)
Min Temperature 56 °F 61 °F 42 °F (2000)
Cooling Degree Days 2    
Growing Degree Days 17 (Base 50)    
Moisture  
Dew Point 56 °F    
Average Humidity 68    
Maximum Humidity 95    
Minimum Humidity 40    
Precipitation  
Precipitation 0.01 in - - ()
Sea Level Pressure  
Sea Level Pressure 30.30 in    
Wind  
Wind Speed 10 mph (NE)    
Max Wind Speed 15 mph    
Max Gust Speed 22 mph    
Visibility 10 miles    
Events      
Averages and records for this station are not official NWS values.
T = Trace of Precipitation, MM = Missing Value Source: NWS Daily Summary

Daily Weather History Graph

Daily Weather History Graph

Search for Another Location

Airport or City:

Trip Planner

Search our weather history database for the weather conditions in past years. The results will help you decide how hot, cold, wet, or windy it might be!

Date:

Astronomy

Sep. 17, 2013 Rise Set
Actual Time 7:05 AM EDT 7:24 PM EDT
Civil Twilight 6:39 AM EDT 7:49 PM EDT
Nautical Twilight 6:09 AM EDT 8:19 PM EDT
Astronomical Twilight 5:39 AM EDT 8:49 PM EDT
Moon 6:08 PM EDT (9/17) 5:00 AM EDT (9/17)
Length of Visible Light 13h 10m
Length of Day
12h 19m
Waxing Gibbous, 96% of the Moon is Illuminated
Sep 17
Waxing Gibbous
Sep 19
Full
Sep 26
Last Quarter
Oct 4
New
Oct 11
First Quarter

Hourly Weather History & Observations

Time (EDT) Temp. Dew Point Humidity Pressure Visibility Wind Dir Wind Speed Gust Speed Precip Events Conditions
12:15 AM 71.6 °F 62.1 °F 72% 30.22 in 10.0 mi NNE 15.0 mph 20.7 mph N/A   Overcast
12:35 AM 70.7 °F 62.6 °F 75% 30.23 in 10.0 mi NNE 15.0 mph - N/A   Overcast
12:55 AM 69.8 °F 62.8 °F 78% 30.24 in 10.0 mi NE 13.8 mph 18.4 mph N/A   Overcast
1:15 AM 69.1 °F 60.6 °F 74% 30.24 in 10.0 mi NE 13.8 mph 21.9 mph N/A   Overcast
1:35 AM 68.7 °F 59.7 °F 73% 30.25 in 10.0 mi NE 12.7 mph 20.7 mph N/A   Overcast
1:55 AM 68.4 °F 59.2 °F 72% 30.25 in 10.0 mi NE 11.5 mph - N/A   Overcast
2:15 AM 67.8 °F 59.0 °F 73% 30.25 in 10.0 mi NE 10.4 mph - N/A   Overcast
2:35 AM 67.5 °F 58.6 °F 73% 30.25 in 10.0 mi NE 10.4 mph - N/A   Overcast
2:55 AM 67.3 °F 57.7 °F 71% 30.25 in 10.0 mi ENE 11.5 mph - N/A   Overcast
3:15 AM 67.3 °F 58.1 °F 72% 30.26 in 10.0 mi ENE 5.8 mph 9.2 mph N/A   Overcast
3:35 AM 66.4 °F 58.1 °F 75% 30.26 in 10.0 mi ENE 10.4 mph - N/A   Overcast
3:55 AM 66.6 °F 56.7 °F 70% 30.27 in 10.0 mi ENE 12.7 mph 17.3 mph N/A   Overcast
4:15 AM 66.2 °F 56.1 °F 70% 30.27 in 10.0 mi ENE 10.4 mph - N/A   Overcast
4:35 AM 65.5 °F 57.2 °F 75% 30.27 in 10.0 mi NE 9.2 mph - N/A   Overcast
4:55 AM 64.9 °F 56.8 °F 75% 30.27 in 10.0 mi ENE 6.9 mph - N/A   Overcast
5:15 AM 64.4 °F 56.7 °F 76% 30.28 in 10.0 mi NE 6.9 mph - N/A   Mostly Cloudy
5:35 AM 63.0 °F 57.2 °F 81% 30.28 in 10.0 mi NE 6.9 mph - N/A   Scattered Clouds
5:55 AM 62.2 °F 56.7 °F 82% 30.29 in 10.0 mi NE 8.1 mph - N/A   Scattered Clouds
6:15 AM 62.2 °F 56.7 °F 82% 30.29 in 10.0 mi NE 10.4 mph - N/A   Clear
6:35 AM 62.1 °F 57.0 °F 84% 30.30 in 10.0 mi NE 6.9 mph - N/A   Clear
6:55 AM 61.0 °F 57.6 °F 88% 30.30 in 10.0 mi NE 8.1 mph - N/A   Scattered Clouds
7:15 AM 61.7 °F 57.7 °F 87% 30.31 in 10.0 mi NE 6.9 mph - N/A   Clear
7:35 AM 61.7 °F 58.1 °F 88% 30.32 in 10.0 mi NE 6.9 mph - N/A   Clear
7:55 AM 63.0 °F 58.6 °F 86% 30.32 in 10.0 mi NE 5.8 mph - N/A   Mostly Cloudy
8:15 AM 63.7 °F 58.5 °F 83% 30.33 in 10.0 mi NE 8.1 mph - N/A   Scattered Clouds
8:35 AM 64.4 °F 58.1 °F 80% 30.34 in 10.0 mi NNE 10.4 mph - N/A   Mostly Cloudy
8:55 AM 64.6 °F 58.1 °F 79% 30.34 in 10.0 mi NE 8.1 mph - N/A   Overcast
9:15 AM 66.0 °F 58.5 °F 77% 30.34 in 10.0 mi ENE 9.2 mph - N/A   Overcast
9:35 AM 66.4 °F 57.6 °F 73% 30.35 in 10.0 mi ENE 8.1 mph - N/A   Overcast
9:55 AM 68.7 °F 57.9 °F 68% 30.35 in 10.0 mi East 8.1 mph - N/A   Mostly Cloudy
10:15 AM 70.2 °F 56.8 °F 63% 30.35 in 10.0 mi ENE 11.5 mph - N/A   Clear
10:35 AM 70.9 °F 55.9 °F 59% 30.36 in 10.0 mi NE 11.5 mph - N/A   Clear
10:55 AM 71.1 °F 55.6 °F 58% 30.36 in 10.0 mi ENE 11.5 mph 18.4 mph N/A   Clear
11:15 AM 70.7 °F 55.0 °F 58% 30.36 in 10.0 mi ENE 8.1 mph 17.3 mph N/A   Scattered Clouds
11:35 AM 71.8 °F 54.3 °F 54% 30.36 in 10.0 mi ENE 10.4 mph 17.3 mph 0.01 in   Scattered Clouds
11:55 AM 72.7 °F 54.0 °F 52% 30.36 in 10.0 mi North - - 0.01 in   Clear
12:15 PM 73.6 °F 54.1 °F 50% 30.35 in 10.0 mi North - - N/A   Clear
12:35 PM 74.7 °F 54.3 °F 49% 30.35 in 10.0 mi ENE 9.2 mph - N/A   Scattered Clouds
12:55 PM 74.3 °F 52.5 °F 46% 30.34 in 10.0 mi ENE 10.4 mph - N/A   Scattered Clouds
1:15 PM 75.9 °F 52.9 °F 45% 30.34 in 10.0 mi ESE 9.2 mph - N/A   Scattered Clouds
1:35 PM 76.3 °F 52.9 °F 44% 30.33 in 10.0 mi NE 10.4 mph 17.3 mph N/A   Scattered Clouds
1:55 PM 76.3 °F 52.5 °F 43% 30.32 in 10.0 mi ENE 8.1 mph - N/A   Scattered Clouds
2:15 PM 77.4 °F 53.1 °F 43% 30.32 in 10.0 mi NE 12.7 mph 17.3 mph N/A   Scattered Clouds
2:35 PM 76.6 °F 52.0 °F 42% 30.31 in 10.0 mi NE 8.1 mph - N/A   Scattered Clouds
2:55 PM 76.5 °F 51.1 °F 41% 30.30 in 10.0 mi East 9.2 mph - N/A   Clear
3:15 PM 77.7 °F 51.8 °F 40% 30.30 in 10.0 mi East 11.5 mph - N/A   Scattered Clouds
3:35 PM 76.6 °F 51.3 °F 41% 30.29 in 10.0 mi NNE 8.1 mph - N/A   Scattered Clouds
3:55 PM 75.9 °F 51.3 °F 42% 30.29 in 10.0 mi ENE 3.5 mph - N/A   Mostly Cloudy
4:15 PM 75.7 °F 52.5 °F 44% 30.28 in 10.0 mi East 6.9 mph - N/A   Overcast
4:35 PM 77.4 °F 52.0 °F 41% 30.28 in 10.0 mi NE 8.1 mph - N/A   Mostly Cloudy
4:55 PM 76.6 °F 52.0 °F 42% 30.28 in 10.0 mi ENE 10.4 mph - N/A   Scattered Clouds
5:15 PM 76.1 °F 51.3 °F 42% 30.28 in 10.0 mi NE 8.1 mph - N/A   Scattered Clouds
5:35 PM 75.0 °F 51.4 °F 44% 30.28 in 10.0 mi ENE 6.9 mph - N/A   Clear
5:55 PM 74.8 °F 50.9 °F 43% 30.27 in 10.0 mi ENE 9.2 mph - N/A   Clear
6:15 PM 73.8 °F 51.8 °F 46% 30.27 in 10.0 mi ENE 6.9 mph - N/A   Clear
6:35 PM 72.0 °F 53.1 °F 51% 30.27 in 10.0 mi NE 8.1 mph - N/A   Clear
6:55 PM 69.3 °F 54.1 °F 59% 30.27 in 10.0 mi NE 5.8 mph - N/A   Clear
7:15 PM 67.1 °F 54.5 °F 64% 30.27 in 10.0 mi NNE 3.5 mph - N/A   Clear
7:35 PM 66.0 °F 55.4 °F 69% 30.28 in 10.0 mi NNE 3.5 mph - N/A   Clear
7:55 PM 63.7 °F 55.9 °F 76% 30.28 in 10.0 mi North 3.5 mph - N/A   Clear
8:15 PM 63.3 °F 56.3 °F 78% 30.28 in 10.0 mi North 4.6 mph - N/A   Clear
8:35 PM 61.7 °F 57.0 °F 85% 30.29 in 10.0 mi Calm Calm - N/A   Clear
8:55 PM 61.7 °F 57.2 °F 85% 30.30 in 10.0 mi NNE 3.5 mph - N/A   Clear
9:15 PM 60.8 °F 56.7 °F 86% 30.30 in 10.0 mi Calm Calm - N/A   Clear
9:35 PM 60.1 °F 56.7 °F 88% 30.31 in 10.0 mi Calm Calm - N/A   Clear
9:55 PM 57.4 °F 55.6 °F 94% 30.31 in 10.0 mi Calm Calm - N/A   Clear
10:15 PM 58.3 °F 56.3 °F 93% 30.32 in 10.0 mi Calm Calm - N/A   Clear
10:35 PM 58.1 °F 56.1 °F 93% 30.32 in 10.0 mi Calm Calm - N/A   Clear
10:55 PM 57.0 °F 55.6 °F 95% 30.32 in 10.0 mi Calm Calm - N/A   Clear
11:15 PM 57.7 °F 55.6 °F 92% 30.32 in 10.0 mi Calm Calm - N/A   Clear
11:35 PM 57.9 °F 55.6 °F 92% 30.32 in 10.0 mi Calm Calm - N/A   Clear
11:55 PM 56.3 °F 54.3 °F 93% 30.32 in 10.0 mi NE 5.8 mph - N/A   Clear